Regional Weather Roundup
Issued by NWS

Home | Current Version | Previous Version | Text Only | Print | Product List | Glossary On
Versions: 1 2 3 4 5 6 7 8 9 10 11 12 13 14 15 16 17 18 19 20 21 22 23 24 25 26 27 28 29 30 31 32 33 34 35 36 37 38 39 40 41 42 43 44 45 46 47 48 49 50
254
ASHW40 PHFO 241632
RWRHI

WEATHER ROUNDUP FOR HAWAII
NATIONAL WEATHER SERVICE HONOLULU HI
600 AM HST WED MAY 24 2017

THIS IS AN AUTOMATED REPORT THAT HAS NOT BEEN QUALITY CONTROLLED.

NOTE..."FAIR" INDICATES FEW OR NO CLOUDS BELOW 12,000 FEET WITH NO
SIGNIFICANT WEATHER AND/OR OBSTRUCTIONS TO VISIBILITY.

* - THESE SITES REPORT LIMITED FIELDS

HIZ001>004-241700-
KAUAI-NIIHAU-

CITY           SKY/WX    TMP DP  RH WIND       PRES   REMARKS
LIHUE APT      LGT RAIN  74  67  78 E16       30.06R
PORT ALLEN*      N/A     73 N/A N/A E8          N/A
POIPU*           N/A     73 N/A N/A NE5G12      N/A
PRINCEVILLE*     N/A     72 N/A N/A SE5G10      N/A
KOKOLE POINT*  NOT AVBL
MOLOAA DAIRY*    N/A     72  66  83 E3G10       N/A
WAIMEA HTS*    NOT AVBL
PUU OPAE*      NOT AVBL
PUU LUA*       NOT AVBL
MAKAHA RIDGE*    N/A     64  59  82 CALM        N/A
$$

HIZ005>011-241700-
OAHU-

CITY           SKY/WX    TMP DP  RH WIND       PRES   REMARKS
HONOLULU       MOCLDY    73  65  75 E6        30.02S
KALAELOA       MOCLDY    71  66  84 CALM      30.04R
KANEOHE MCB    NOT AVBL
WHEELER FIELD  FAIR      70  66  86 W3        30.03S
BELLOWS*         N/A    N/A N/A N/A NE17        N/A
KAHUKU*          N/A    N/A N/A N/A NE7G14      N/A
WHEELER*       NOT AVBL
WAIANAE HARBOR NOT AVBL
DILLINGHAM*      N/A     64  63  94 CALM        N/A
KAHUKU TRN*      N/A     72  68  88 W7G18       N/A
KAWAILOA*        N/A     70  64  83 E8          N/A
KII*             N/A     75  66  73 E14G20      N/A
MAKUA RANGE*     N/A     70  64  83 W3G10       N/A
OAHU FOREST NW NOT AVBL
SCHOFIELD BRK*   N/A     70  68  94 MISG        N/A
SCHOFIELD S*   NOT AVBL
WAIANAE VLY*   NOT AVBL
KUAOKALA*      NOT AVBL
HONOULIUULI*   NOT AVBL
MOKUOLOE IS*   NOT AVBL
PALEHUA*       NOT AVBL
WAIAWA PHB*    NOT AVBL
$$

HIZ012>013-241700-
MOLOKAI-

CITY           SKY/WX    TMP DP  RH WIND       PRES   REMARKS
MOLOKAI AIRPT  FAIR      73  64  73 NE6       30.04R
KALAUPAPA      NOT AVBL
MAKAPULAPAI*     N/A     73  64  73 E17G25      N/A
MOLOKAI 1*     NOT AVBL
PUU ALII*        N/A     56  55  98 NE3G13      N/A
$$

HIZ016-241700-
KAHOOLAWE-

CITY           SKY/WX    TMP DP  RH WIND       PRES   REMARKS
KAHOOLAWE*     NOT AVBL
HAKIOAWA*        N/A     69  62  79 MISG      30.44S
HONOKANAIA*      N/A     73  64  73 N5G16     29.95S
KANELOA*         N/A     72  64  78 NE12G31   30.07S
KEALIALALO*    NOT AVBL
LUA MAKIKA*    NOT AVBL
$$

HIZ014>015-241700-
LANAI-

CITY           SKY/WX    TMP DP  RH WIND       PRES   REMARKS
LANAI CITY     FAIR      63  59  87 NE7       30.07S
LANAI 1*       NOT AVBL
$$

HIZ017>028-241700-
MAUI-

CITY           SKY/WX    TMP DP  RH WIND       PRES   REMARKS
KAHULUI        FAIR      71  64  78 NE9       30.03R
KAPALUA-W MAUI NOT AVBL
HANA AIRPORT   MOCLDY    70  66  88 E5        30.09R
HANA*            N/A     70 N/A N/A S2          N/A
HALEAKALA SUMM   N/A     45   1  16 SE8G33      N/A
MAALAEA BAY*     N/A     73 N/A N/A N16G24      N/A
HALEAKALA*     NOT AVBL
KAUPO GAP*     NOT AVBL
KULA 1*          N/A    N/A N/A N/A E3          N/A
$$

HIZ023>026-241700-
BIG ISLAND OF HAWAII COAST AND LOWER SLOPES-

CITY           SKY/WX    TMP DP  RH WIND       PRES   REMARKS
KAILUA KONA    FAIR      73  61  65 E6        29.98R
HILO           MOCLDY    69  66  90 SW3       30.04R
HONOKAA*         N/A     66 N/A N/A VRB1        N/A
KAWAIHAE MWT*    N/A     77 N/A N/A E18G25      N/A
KAWAIHAE*        N/A     79 N/A N/A E17       29.98S
SOUTH POINT*     N/A     66 N/A N/A NW9         N/A
UPOLU AIRPORT* NOT AVBL
KAMUELA*       NOT AVBL
HAKALAU*         N/A     37  34  87 W3          N/A
KALOKO-HONOKO* NOT AVBL
PALI 2*          N/A     63  54  72 S12G24      N/A
KEALAKOMO*       N/A     73  63  68 N12G17      N/A
KAUPULEHU*     NOT AVBL
KAPAPALA*        N/A     57  55  93 VRB3        N/A
LOWER KAHUKU*    N/A     55  54  94 N2G8        N/A
PUHE CS*         N/A     75  55  50 E13G23      N/A
PUHO CS*         N/A     71  57  61 E3          N/A
PTA KEAMUKU*     N/A     54  46  76 CALM        N/A
WAIKOLOA*      NOT AVBL
$$

HIZ027>028-241700-
BIG ISLAND OF HAWAII INTERIOR AND SUMMMITS-

CITY           SKY/WX    TMP DP  RH WIND       PRES   REMARKS
BRADSHAW FIELD FAIR      38  33  83 SE3       30.29R
MK VISITOR CEN   N/A     50  -4  10 E5          N/A
MAUNA KEA*       N/A     37  -2  18 CALM        N/A
MAUNA LOA*       N/A     43  -2  15 MISG        N/A
MAUNA LOA 1*   NOT AVBL
PTA KIPUKA*      N/A     45  43  93 SE6         N/A
PTA RANGE 17*  NOT AVBL
PTA WEST*        N/A     52  45  76 SE13        N/A
NENE CABIN*      N/A     46  41  81 NE6G12      N/A
AHUMOA*        NOT AVBL
PTA PORTABLE*  NOT AVBL
PUU MALI*        N/A    N/A N/A N/A SW5G10      N/A
$$

HIC003-241700-
NORTHWEST ISLANDS-

CITY           SKY/WX    TMP DP  RH WIND       PRES   REMARKS
MIDWAY ISLAND  CLOUDY    70  63  78 E15       30.28S
MIDWAY NOS*      N/A     70 N/A N/A MISG      30.27R
FRENCH FRIGATE NOT AVBL
$$

PHZ110>124-180-241700-
BUOY REPORTS

STATION/POSITION TIME  TEMP    WIND        PRES    WAVE   SWELL
                       AIR SEA DIR/SP/G            HT/PER HT/DIR
                 (UTC) (F)     (DEG/KT/KT) (MB)    (FT/S) (FT/D)
BUOY 51001       1610   75 77   70/ 17/ 19 1019.9
BUOY 51101       1550   75 77   60/ 17/ 21 1020.0R   9/ 8   5/ 60
BUOY 51100       NOT AVBL
BUOY 51002       1610   77 78   70/ 17/ 23 1014.5
BUOY 51003       1550   77 79   50/ 14/ 16 1015.3R   8/ 8   8/ 70
BUOY 51004       1550      78   40/ 12/ 14 1014.9R   7/ 7   7/ 70
BARBERS PT BUOY  NOT AVBL
WAIMEA BAY BUOY  1602      78                N/A     7/ 8   2/340
KAILUA BAY BUOY  1604      78                N/A     8/ 8   2/340
LANAI BUOY       NOT AVBL
BARBERS PT 2     NOT AVBL
PAUWELA MAUI     1609      78                N/A     9/11   3/330
HILO             1612      78                N/A     7/ 8   3/340
KANEOHE BAY BUOY 1555      79                N/A     8/ 8   2/350
HANALEI KAUAI    1552      79                N/A     7/ 8   2/330
KAHULUI HARBOR   1600   74 79   40/  7/ 11 1017.1
HONOLULU HARBOR  1600   75 79   40/  2/  2 1017.6
KILO NALU        NOT AVBL
HILO HARBOR      1600   72 77  230/  3/  4 1017.0
MOKUOLOE         1536   76 80   80/  7/ 11 1016.9R
NAWILIWILI       1600   76      40/ 10/ 12 1017.4
WHOTS BUOY       NOT AVBL
BUOY 51028       NOT AVBL
$$

......................KEY........................................
  SKY/WX - SKY CONDITIONS/PRESENT WEATHER
  TMP    - TEMPERATURE IN FAHRENHEIT
  DWPT   - DEWPOINT IN FAHRENHEIT
  RH     - RELATIVE HUMIDITY IN PERCENT
  WIND   - DIRECTION AND SPEED /MPH FOR ISLANDS...KTS FOR BUOYS/
  PRES   - MEAN SEA LEVEL PRESSURE IN INCHES OF HG
  VSB    - VISIBILITY IN MILES
  HX     - HEAT INDEX
  WCI    - WIND CHILL INDEX
  VRB    - VARIABLE WIND DIRECTION
  N/A    - NOT AVAILABLE




USA.gov is the U.S. government's official web portal to all federal, state and local government web resources and services.